| time (UTC) | temp C | wind direction | speed KPH | gust KPH | rain 1hr cm | rain 24hr cm | rain mn cm | humidity % | barometer mb |
| 20260504215000 | 26 | 210 | 20.9 | 25.7 | 0.00 | 0.00 | 0.00 | 40 | 1006.0 |
| 20260504214500 | 25 | 208 | 25.7 | 25.7 | 0.00 | 0.00 | 0.00 | 40 | 1006.1 |
| 20260504214000 | 26 | 242 | 16.1 | 25.7 | 0.00 | 0.00 | 0.00 | 41 | 1006.1 |
| 20260504213500 | 26 | 232 | 12.9 | 25.7 | 0.00 | 0.00 | 0.00 | 42 | 1006.2 |
| 20260504213000 | 25 | 186 | 17.7 | 25.7 | 0.00 | 0.00 | 0.00 | 41 | 1006.2 |
| 20260504212500 | 25 | 202 | 16.1 | 32.2 | 0.00 | 0.00 | 0.00 | 40 | 1006.3 |
| 20260504212000 | 26 | 208 | 11.3 | 32.2 | 0.00 | 0.00 | 0.00 | 43 | 1006.4 |
| 20260504211500 | 26 | 219 | 14.5 | 29.0 | 0.00 | 0.00 | 0.00 | 40 | 1006.4 |
| 20260504211000 | 26 | 211 | 24.1 | 29.0 | 0.00 | 0.00 | 0.00 | 42 | 1006.5 |
| 20260504210500 | 26 | 197 | 27.4 | 32.2 | 0.00 | 0.00 | 0.00 | 42 | 1006.6 |
| 20260504210000 | 26 | 213 | 17.7 | 35.4 | 0.00 | 0.00 | 0.00 | 38 | 1006.6 |
| 20260504205500 | 25 | 200 | 14.5 | 35.4 | 0.00 | 0.00 | 0.00 | 41 | 1006.6 |
| 20260504205000 | 25 | 191 | 20.9 | 30.6 | 0.00 | 0.00 | 0.00 | 42 | 1006.6 |
| 20260504204500 | 25 | 223 | 14.5 | 30.6 | 0.00 | 0.00 | 0.00 | 41 | 1006.8 |
| 20260504204000 | 25 | 229 | 19.3 | 32.2 | 0.00 | 0.00 | 0.00 | 40 | 1006.8 |
| 20260504203500 | 26 | 212 | 22.5 | 32.2 | 0.00 | 0.00 | 0.00 | 40 | 1007.0 |
| 20260504203000 | 26 | 214 | 19.3 | 29.0 | 0.00 | 0.00 | 0.00 | 39 | 1007.1 |
| 20260504202500 | 25 | 208 | 17.7 | 27.4 | 0.00 | 0.00 | 0.00 | 41 | 1007.2 |
| 20260504202000 | 26 | 207 | 20.9 | 33.8 | 0.00 | 0.00 | 0.00 | 42 | 1007.4 |
| 20260504201500 | 26 | 240 | 20.9 | 33.8 | 0.00 | 0.00 | 0.00 | 39 | 1007.3 |
| 20260504201000 | 26 | 203 | 24.1 | 40.2 | 0.00 | 0.00 | 0.00 | 41 | 1007.4 |
| 20260504200500 | 25 | 190 | 24.1 | 40.2 | 0.00 | 0.00 | 0.00 | 42 | 1007.6 |
| 20260504200000 | 26 | 203 | 25.7 | 25.7 | 0.00 | 0.00 | 0.00 | 40 | 1007.5 |
| 20260504195500 | 25 | 212 | 19.3 | 27.4 | 0.00 | 0.00 | 0.00 | 41 | 1007.6 |
| 20260504195000 | 26 | 216 | 14.5 | 27.4 | 0.00 | 0.00 | 0.00 | 45 | 1007.6 |
| 20260504194500 | 26 | 217 | 17.7 | 27.4 | 0.00 | 0.00 | 0.00 | 40 | 1007.7 |
| 20260504194000 | 26 | 212 | 19.3 | 29.0 | 0.00 | 0.00 | 0.00 | 41 | 1007.7 |
| 20260504193500 | 25 | 224 | 19.3 | 30.6 | 0.00 | 0.00 | 0.00 | 44 | 1007.9 |
| 20260504193000 | 25 | 199 | 20.9 | 33.8 | 0.00 | 0.00 | 0.00 | 41 | 1008.0 |
| 20260504192500 | 25 | 216 | 17.7 | 33.8 | 0.00 | 0.00 | 0.00 | 43 | 1008.1 |
| 20260504192000 | 26 | 205 | 16.1 | 32.2 | 0.00 | 0.00 | 0.00 | 40 | 1008.1 |
| 20260504191505 | 25 | 208 | 14.5 | 32.2 | 0.00 | 0.00 | 0.00 | 43 | 1008.2 |
| 20260504191000 | 26 | 230 | 22.5 | 32.2 | 0.00 | 0.00 | 0.00 | 41 | 1008.2 |
| 20260504190500 | 25 | 203 | 16.1 | 33.8 | 0.00 | 0.00 | 0.00 | 43 | 1008.3 |
| 20260504190000 | 25 | 229 | 14.5 | 33.8 | 0.00 | 0.00 | 0.00 | 44 | 1008.3 |
| 20260504185500 | 25 | 214 | 16.1 | 32.2 | 0.00 | 0.00 | 0.00 | 43 | 1008.3 |
| 20260504185000 | 25 | 209 | 19.3 | 32.2 | 0.00 | 0.00 | 0.00 | 44 | 1008.4 |
| 20260504184500 | 25 | 209 | 12.9 | 32.2 | 0.00 | 0.00 | 0.00 | 41 | 1008.5 |
| 20260504184000 | 25 | 228 | 12.9 | 32.2 | 0.00 | 0.00 | 0.00 | 43 | 1008.6 |
| 20260504183500 | 25 | 185 | 20.9 | 32.2 | 0.00 | 0.00 | 0.00 | 41 | 1008.6 |
| 20260504183000 | 25 | 211 | 17.7 | 32.2 | 0.00 | 0.00 | 0.00 | 41 | 1008.7 |
| 20260504182500 | 25 | 199 | 19.3 | 33.8 | 0.00 | 0.00 | 0.00 | 44 | 1008.7 |
| 20260504182001 | 25 | 214 | 16.1 | 33.8 | 0.00 | 0.00 | 0.00 | 42 | 1008.8 |
| 20260504181500 | 25 | 205 | 19.3 | 30.6 | 0.00 | 0.00 | 0.00 | 42 | 1008.8 |
| 20260504181000 | 25 | 211 | 17.7 | 32.2 | 0.00 | 0.00 | 0.00 | 41 | 1008.9 |
| 20260504180500 | 25 | 222 | 16.1 | 32.2 | 0.00 | 0.00 | 0.00 | 42 | 1008.9 |
| 20260504180000 | 25 | 209 | 24.1 | 27.4 | 0.00 | 0.00 | 0.00 | 43 | 1009.0 |
| 20260504175500 | 25 | 210 | 16.1 | 27.4 | 0.00 | 0.00 | 0.00 | 46 | 1009.0 |
| 20260504175001 | 25 | 221 | 24.1 | 30.6 | 0.00 | 0.00 | 0.00 | 42 | 1009.1 |
| 20260504174500 | 25 | 239 | 17.7 | 32.2 | 0.00 | 0.00 | 0.00 | 42 | 1009.2 |
| 20260504174000 | 24 | 224 | 14.5 | 33.8 | 0.00 | 0.00 | 0.00 | 47 | 1009.3 |
| 20260504173500 | 25 | 217 | 24.1 | 33.8 | 0.00 | 0.00 | 0.00 | 42 | 1009.2 |
| 20260504173000 | 25 | 202 | 19.3 | 35.4 | 0.00 | 0.00 | 0.00 | 42 | 1009.5 |
| 20260504172500 | 24 | 234 | 19.3 | 35.4 | 0.00 | 0.00 | 0.00 | 43 | 1009.5 |
| 20260504172000 | 24 | 229 | 22.5 | 38.6 | 0.00 | 0.00 | 0.00 | 44 | 1009.4 |
| 20260504171500 | 24 | 232 | 17.7 | 38.6 | 0.00 | 0.00 | 0.00 | 45 | 1009.6 |
| 20260504171000 | 24 | 239 | 27.4 | 32.2 | 0.00 | 0.00 | 0.00 | 45 | 1009.7 |
| 20260504170500 | 24 | 198 | 27.4 | 30.6 | 0.00 | 0.00 | 0.00 | 46 | 1009.8 |
| 20260504151000 | 21 | 221 | 11.3 | 22.5 | 0.00 | 0.00 | 0.00 | 58 | 1010.2 |
| 20260504150500 | 21 | 249 | 9.7 | 22.5 | 0.00 | 0.00 | 0.00 | 60 | 1010.1 |
| 20260504141000 | 20 | 224 | 11.3 | 22.5 | 0.00 | 0.00 | 0.00 | 63 | 1010.2 |
| 20260504140500 | 19 | 241 | 11.3 | 22.5 | 0.00 | 0.00 | 0.00 | 62 | 1010.2 |
| 20260504110500 | 15 | 176 | 11.3 | 20.9 | 0.00 | 0.00 | 0.00 | 71 | 1008.5 |
| 20260504100500 | 15 | 199 | 9.7 | 12.9 | 0.00 | 0.00 | 0.00 | 70 | 1008.7 |
| 20260504082000 | 16 | 219 | 12.9 | 16.1 | 0.00 | 0.00 | 0.00 | 67 | 1009.1 |
| 20260504081500 | 16 | 215 | 6.4 | 14.5 | 0.00 | 0.00 | 0.00 | 68 | 1009.1 |
| 20260504081000 | 16 | 215 | 12.9 | 14.5 | 0.00 | 0.00 | 0.00 | 68 | 1009.1 |
| 20260504080500 | 16 | 200 | 12.9 | 19.3 | 0.00 | 0.00 | 0.00 | 67 | 1009.2 |
| 20260504050500 | 18 | 193 | 4.8 | 12.9 | 0.00 | 0.00 | 0.00 | 64 | 1010.1 |
| 20260504050000 | 18 | 186 | 8.0 | 14.5 | 0.00 | 0.00 | 0.00 | 63 | 1010.1 |
| 20260504045500 | 17 | 189 | 9.7 | 14.5 | 0.00 | 0.00 | 0.00 | 64 | 1010.1 |
| 20260504045000 | 17 | 192 | 8.0 | 14.5 | 0.00 | 0.00 | 0.00 | 64 | 1010.1 |
| 20260504044500 | 17 | 200 | 11.3 | 17.7 | 0.00 | 0.00 | 0.00 | 65 | 1010.1 |
| 20260504044000 | 18 | 202 | 8.0 | 17.7 | 0.00 | 0.00 | 0.00 | 64 | 1010.2 |
| 20260504043500 | 18 | 206 | 17.7 | 17.7 | 0.00 | 0.00 | 0.00 | 63 | 1010.2 |
| 20260504043000 | 18 | 198 | 8.0 | 16.1 | 0.00 | 0.00 | 0.00 | 63 | 1010.3 |
| 20260504042500 | 18 | 186 | 8.0 | 16.1 | 0.00 | 0.00 | 0.00 | 62 | 1010.3 |
| 20260504042000 | 18 | 206 | 12.9 | 14.5 | 0.00 | 0.00 | 0.00 | 63 | 1010.3 |
| 20260504041500 | 18 | 192 | 9.7 | 14.5 | 0.00 | 0.00 | 0.00 | 62 | 1010.3 |
| 20260504041000 | 18 | 191 | 8.0 | 12.9 | 0.00 | 0.00 | 0.00 | 63 | 1010.4 |
| 20260504040500 | 17 | 192 | 6.4 | 11.3 | 0.00 | 0.00 | 0.00 | 65 | 1010.5 |
| 20260504040000 | 18 | 173 | 9.7 | 14.5 | 0.00 | 0.00 | 0.00 | 64 | 1010.4 |
| 20260504035500 | 18 | 165 | 6.4 | 14.5 | 0.00 | 0.00 | 0.00 | 63 | 1010.4 |
| 20260504035000 | 18 | 196 | 11.3 | 11.3 | 0.00 | 0.00 | 0.00 | 63 | 1010.5 |
| 20260504034500 | 18 | 188 | 6.4 | 14.5 | 0.00 | 0.00 | 0.00 | 65 | 1010.5 |
| 20260504034000 | 18 | 176 | 6.4 | 14.5 | 0.00 | 0.00 | 0.00 | 64 | 1010.5 |
| 20260504033500 | 18 | 196 | 6.4 | 14.5 | 0.00 | 0.00 | 0.00 | 63 | 1010.5 |
| 20260504033000 | 18 | 185 | 6.4 | 14.5 | 0.00 | 0.00 | 0.00 | 64 | 1010.5 |
| 20260504032500 | 17 | 204 | 9.7 | 9.7 | 0.00 | 0.00 | 0.00 | 66 | 1010.4 |
| 20260504032000 | 17 | 193 | 4.8 | 9.7 | 0.00 | 0.00 | 0.00 | 66 | 1010.4 |
| 20260504031500 | 18 | 194 | 8.0 | 9.7 | 0.00 | 0.00 | 0.00 | 65 | 1010.4 |
| 20260504031000 | 18 | 196 | 6.4 | 9.7 | 0.00 | 0.00 | 0.00 | 66 | 1010.4 |
| 20260504030500 | 18 | 187 | 6.4 | 9.7 | 0.00 | 0.00 | 0.00 | 65 | 1010.4 |
| 20260504030000 | 18 | 202 | 6.4 | 9.7 | 0.00 | 0.00 | 0.00 | 65 | 1010.3 |
| 20260504025500 | 18 | 189 | 6.4 | 9.7 | 0.00 | 0.00 | 0.00 | 65 | 1010.3 |
| 20260504025000 | 18 | 189 | 6.4 | 9.7 | 0.00 | 0.00 | 0.00 | 66 | 1010.3 |
| 20260504024500 | 18 | 187 | 6.4 | 8.0 | 0.00 | 0.00 | 0.00 | 66 | 1010.3 |
| 20260504024000 | 18 | 205 | 6.4 | 8.0 | 0.00 | 0.00 | 0.00 | 67 | 1010.3 |
| 20260504023500 | 18 | 172 | 8.0 | 8.0 | 0.00 | 0.00 | 0.00 | 67 | 1010.3 |
| 20260504023000 | 18 | 184 | 6.4 | 8.0 | 0.00 | 0.00 | 0.00 | 68 | 1010.3 |
| 20260504022500 | 18 | 196 | 6.4 | 8.0 | 0.00 | 0.00 | 0.00 | 68 | 1010.3 |
| 20260504022000 | 18 | 196 | 6.4 | 8.0 | 0.00 | 0.00 | 0.00 | 67 | 1010.3 |
| 20260504021500 | 18 | 200 | 6.4 | 8.0 | 0.00 | 0.00 | 0.00 | 67 | 1010.2 |
| 20260504021000 | 18 | 197 | 6.4 | 8.0 | 0.00 | 0.00 | 0.00 | 67 | 1010.3 |
| 20260504020500 | 18 | 194 | 4.8 | 8.0 | 0.00 | 0.00 | 0.00 | 68 | 1010.3 |
| 20260504020000 | 18 | 179 | 6.4 | 8.0 | 0.00 | 0.00 | 0.00 | 67 | 1010.2 |
| 20260504015500 | 18 | 194 | 6.4 | 8.0 | 0.00 | 0.00 | 0.00 | 66 | 1010.2 |
| 20260504015000 | 18 | 186 | 4.8 | 8.0 | 0.00 | 0.00 | 0.00 | 66 | 1010.2 |
| 20260504014500 | 18 | 181 | 4.8 | 6.4 | 0.00 | 0.00 | 0.00 | 67 | 1010.2 |
| 20260504014000 | 19 | 193 | 6.4 | 6.4 | 0.00 | 0.00 | 0.00 | 66 | 1010.2 |
| 20260504013500 | 19 | 185 | 6.4 | 6.4 | 0.00 | 0.00 | 0.00 | 66 | 1010.2 |
| 20260504013000 | 20 | 190 | 6.4 | 6.4 | 0.00 | 0.00 | 0.00 | 62 | 1010.2 |
| 20260504012500 | 20 | 189 | 4.8 | 6.4 | 0.00 | 0.00 | 0.00 | 60 | 1010.1 |
| 20260504012000 | 20 | 195 | 4.8 | 6.4 | 0.00 | 0.00 | 0.00 | 63 | 1010.1 |
| 20260504011500 | 20 | 185 | 4.8 | 6.4 | 0.00 | 0.00 | 0.00 | 65 | 1010.2 |
| 20260504011000 | 20 | 174 | 6.4 | 6.4 | 0.00 | 0.00 | 0.00 | 63 | 1010.2 |
| 20260504010500 | 21 | 176 | 6.4 | 6.4 | 0.00 | 0.00 | 0.00 | 57 | 1010.2 |
| 20260504010000 | 21 | 193 | 6.4 | 6.4 | 0.00 | 0.00 | 0.00 | 53 | 1010.2 |
| 20260504005500 | 21 | 196 | 4.8 | 8.0 | 0.00 | 0.00 | 0.00 | 52 | 1010.3 |
| 20260504005000 | 22 | 206 | 6.4 | 8.0 | 0.00 | 0.00 | 0.00 | 50 | 1010.3 |
| 20260504004500 | 22 | 204 | 6.4 | 8.0 | 0.00 | 0.00 | 0.00 | 50 | 1010.4 |
| 20260504004001 | 22 | 206 | 4.8 | 8.0 | 0.00 | 0.00 | 0.00 | 50 | 1010.6 |
| 20260504003500 | 23 | 198 | 6.4 | 8.0 | 0.00 | 0.00 | 0.00 | 49 | 1010.7 |
| 20260504003000 | 23 | 195 | 6.4 | 8.0 | 0.00 | 0.00 | 0.00 | 48 | 1010.7 |
| 20260504002500 | 23 | 214 | 4.8 | 6.4 | 0.00 | 0.00 | 0.00 | 46 | 1010.8 |
| 20260504002000 | 23 | 215 | 4.8 | 9.7 | 0.00 | 0.00 | 0.00 | 45 | 1010.8 |
| 20260504001500 | 23 | 220 | 4.8 | 9.7 | 0.00 | 0.00 | 0.00 | 44 | 1010.9 |
| 20260504001000 | 24 | 211 | 6.4 | 14.5 | 0.00 | 0.00 | 0.00 | 43 | 1011.0 |
| 20260504000500 | 24 | 219 | 4.8 | 14.5 | 0.00 | 0.00 | 0.00 | 44 | 1011.0 |
| 20260504000000 | 25 | 232 | 14.5 | 14.5 | 0.00 | 0.00 | 0.00 | 40 | 1010.9 |
| 20260503235500 | 25 | 225 | 4.8 | 12.9 | 0.00 | 0.00 | 0.00 | 41 | 1011.0 |
| 20260503235000 | 25 | 198 | 8.0 | 16.1 | 0.00 | 0.00 | 0.00 | 41 | 1010.9 |
| 20260503234500 | 25 | 246 | 11.3 | 16.1 | 0.00 | 0.00 | 0.00 | 40 | 1010.9 |
| 20260503234000 | 25 | 231 | 11.3 | 16.1 | 0.00 | 0.00 | 0.00 | 40 | 1010.9 |
| 20260503233500 | 25 | 221 | 11.3 | 16.1 | 0.00 | 0.00 | 0.00 | 39 | 1010.9 |
| 20260503233000 | 25 | 234 | 11.3 | 16.1 | 0.00 | 0.00 | 0.00 | 38 | 1010.9 |
| 20260503232500 | 25 | 225 | 11.3 | 17.7 | 0.00 | 0.00 | 0.00 | 38 | 1011.1 |
| 20260503232000 | 25 | 228 | 6.4 | 17.7 | 0.00 | 0.00 | 0.00 | 40 | 1011.2 |
| 20260503231500 | 25 | 221 | 9.7 | 17.7 | 0.00 | 0.00 | 0.00 | 39 | 1011.3 |
| 20260503231000 | 25 | 208 | 14.5 | 17.7 | 0.00 | 0.00 | 0.00 | 37 | 1011.3 |
| 20260503230500 | 25 | 233 | 12.9 | 16.1 | 0.00 | 0.00 | 0.00 | 39 | 1011.4 |
| 20260503230000 | 25 | 212 | 4.8 | 16.1 | 0.00 | 0.00 | 0.00 | 39 | 1011.4 |
| 20260503225500 | 25 | 217 | 6.4 | 16.1 | 0.00 | 0.00 | 0.00 | 38 | 1011.5 |
| 20260503225000 | 25 | 222 | 6.4 | 16.1 | 0.00 | 0.00 | 0.00 | 39 | 1011.5 |
| 20260503224500 | 25 | 219 | 11.3 | 19.3 | 0.00 | 0.00 | 0.00 | 37 | 1011.6 |
| 20260503224000 | 25 | 235 | 8.0 | 19.3 | 0.00 | 0.00 | 0.00 | 40 | 1011.6 |
| 20260503223500 | 25 | 250 | 8.0 | 17.7 | 0.00 | 0.00 | 0.00 | 37 | 1011.6 |
| 20260503223000 | 25 | 210 | 9.7 | 16.1 | 0.00 | 0.00 | 0.00 | 38 | 1011.7 |
| 20260503222500 | 25 | 246 | 9.7 | 14.5 | 0.00 | 0.00 | 0.00 | 37 | 1011.7 |
| 20260503222000 | 25 | 235 | 8.0 | 16.1 | 0.00 | 0.00 | 0.00 | 37 | 1011.8 |
| 20260503221500 | 25 | 204 | 11.3 | 20.9 | 0.00 | 0.00 | 0.00 | 37 | 1011.8 |
| 20260503221000 | 25 | 210 | 6.4 | 25.7 | 0.00 | 0.00 | 0.00 | 40 | 1011.8 |
| 20260503220500 | 25 | 233 | 17.7 | 25.7 | 0.00 | 0.00 | 0.00 | 39 | 1011.9 |
| 20260503220000 | 25 | 194 | 16.1 | 20.9 | 0.00 | 0.00 | 0.00 | 38 | 1011.9 |
| 20260503215500 | 25 | 199 | 14.5 | 20.9 | 0.00 | 0.00 | 0.00 | 38 | 1012.0 |